GPS IIR-4

operational
NORAD ID: 26360 Int'l Des: 2000-025 Owner: AFSMC Country: US Constellation: GPS
MEOCIRCULARGNSS

Über GPS IIR-4

Beschreibung wird geladen...

Live-Position

3D-Globus wird geladen...

Nächste Überflüge

Höhenverlauf

Altitude vs Time

uPlot chart will show altitude changes over time

Zweizeiliger Elementsatz

1 26360U 00025A 25259.36703062 -.00000077 00000-0 00000-0 0 9999
2 26360 54.9960 30.3702 0036991 234.6377 133.5032 2.00574415185781
Epoch: 16. Sept. 2025 • Age: 16 hours

Aktueller Status

Höhe 20189.9 km
Geschwindigkeit 3.87 km/s
Subsatellitenpunkt 31.38°N, 171.02°E
Startdatum 11. Mai 2000
Alter 25.3 years
Typ navigation

Technische Details

Klassifizierung Payload
Masse 1077.00 kg
Trockenmasse 910.00 kg
Gesamtmasse 2032.00 kg
Länge 1.50 m
Durchmesser 1.90 m
Spannweite 19.30 m
Form Box + 2 Pan
Hersteller LMMS
Bus-Typ Series 4000
Phasenstatus In Orbit
Besitzer/Staat AFSMC/US

Große Konstellationen

Loading constellations...